Location: Most
(50.5133°N, 13.6207°E)
Time: 02:45:51
(UTC+01:00)

ZACube-1 - Pass Details

Date: 04 December 2021
Orbit: 582 x 665 km, 97.6° (Epoch: 24 January)

Event Time Altitude Azimuth Distance (km) Brightness Sun altitude
Rises 05:30:58 0° 6° (N) 2,995 ? -20.8°
Reaches altitude 10° 05:33:21 10° 357° (N) 2,087 ? -20.5°
Enters shadow 05:34:31 17° 348° (NNW) 1,690 ? -20.3°
